#timestamp,LO_Frequency,Hit,StdDev 
1557964815.9,286046998.4,N
1557964835.7,286046999.3,N
1557964855.5,286046999.5,N
1557964875.4,286046999.2,N
1557964895.2,286047000.7,N
1557964915.0,286046998.7,N
1557964915.9,286046998.7,N
1557964935.8,286047001.2,N
1557964955.6,286047002.8,N
1557964975.5,286047001.9,N
1557964995.3,286047002.7,N
1557965015.1,286047001.5,N
1557965035.9,286047002.4,N
1557965055.7,286047001.4,N
1557965075.5,286047000.7,N
1557965095.4,286046998.8,N
1557965115.2,286046997.7,N
1557965135.1,286046997.4,N
1557965136.0,286046997.4,N
1557965155.8,286046998.8,N
1557965175.6,286046998.7,N
1557965195.5,286047001.1,N
1557965215.3,286047000.3,N
1557965235.1,286047004.4,N
1557965255.9,286047001.6,N
1557965275.7,286047000.1,N
1557965295.6,286046999.9,N
1557965315.4,286047000.3,N
1557965335.2,286047000.4,N
1557965355.1,286047000.6,N
1557965356.0,286047000.6,N
1557965375.8,286047000.0,N
1557965395.6,286047000.0,N
1557965415.5,286047002.6,N
1557965435.3,286047000.5,N
1557965455.2,286047000.2,N
1557965475.9,286046999.9,N
1557965495.7,286047002.3,N
1557965515.6,286047001.8,N
1557965535.4,286047003.0,N
1557965555.2,286047002.1,N
1557965575.1,286047002.7,N
1557965576.0,286047002.7,N
1557965595.8,286047000.5,N
1557965615.7,286046999.9,N
1557965635.5,286046998.1,N
1557965655.3,286047000.6,N
1557965675.2,286047002.4,N
1557965695.0,286047005.9,Y
1557965695.9,286047005.9,P
1557965715.8,286047002.6,N
1557965735.6,286046999.9,N
1557965755.4,286047002.4,N
1557965775.3,286047001.7,N
1557965795.1,286047001.3,N
1557965815.8,286047000.2,N
1557965835.7,286047002.4,N
1557965855.5,286047004.2,N
1557965875.4,286047003.6,N
1557965895.2,286047004.3,N
1557965915.0,286046999.9,N
1557965915.9,286046999.9,N
1557965935.8,286047000.2,N
1557965955.6,286046999.8,N
1557965975.4,286047002.3,N
1557965995.3,286046999.8,N
1557966015.1,286047001.2,N
1557966035.9,286046998.9,N
1557966055.7,286046999.6,N
1557966075.5,286046996.5,N
1557966095.4,286046997.1,N
1557966115.2,286046997.7,N
1557966135.0,286046999.6,N
1557966135.9,286046999.6,N
1557966155.8,286046996.5,N
1557966175.6,286046997.7,N
1557966195.5,286046998.9,N
1557966215.3,286047000.5,N
1557966235.1,286046998.4,N
1557966255.9,286047001.2,N
1557966275.7,286046998.1,N
1557966295.5,286047001.0,N
1557966315.4,286047000.0,N
1557966335.2,286047000.6,N
1557966355.1,286047002.5,N
1557966356.0,286047002.5,N
1557966375.8,286047004.1,N
1557966395.6,286047004.7,N
1557966415.5,286047004.0,N
1557966435.3,286047003.6,N
1557966455.1,286047001.4,N
1557966475.9,286047001.8,N
1557966495.7,286047001.6,N
1557966515.6,286046999.9,N
1557966535.4,286047001.2,N
1557966555.2,286047000.0,N
1557966575.1,286046999.9,N
1557966576.0,286046999.9,N
1557966595.8,286047002.1,N
1557966615.6,286047003.7,N
1557966635.5,286047004.0,N
1557966655.3,286047000.9,N
1557966675.2,286046999.9,N
1557966695.0,286047004.3,N
1557966695.9,286047004.3,N
1557966715.8,286047003.2,N
1557966735.6,286047001.7,N
1557966755.4,286047001.7,N
1557966775.3,286046999.9,N
1557966795.1,286047000.0,N
1557966815.8,286047002.0,N
1557966835.7,286047003.0,N
1557966855.5,286047001.6,N
1557966875.4,286047001.7,N
1557966895.2,286047004.4,N
1557966915.0,286047005.8,Y
1557966915.9,286047005.8,P
1557966935.8,286047004.1,N
1557966955.6,286047001.3,N
1557966975.5,286047002.1,N
1557966995.3,286047004.4,N
1557967015.1,286047001.9,N
1557967035.9,286046998.1,N
1557967055.7,286046996.5,N
1557967075.5,286046999.3,N
1557967095.4,286047000.8,N
1557967115.2,286047000.5,N
1557967135.1,286047002.6,N
1557967136.0,286047002.6,N
1557967155.8,286047002.5,N
1557967175.6,286047001.9,N
1557967195.5,286047002.1,N
1557967215.3,286047001.2,N
1557967235.1,286046998.1,N
1557967255.9,286047000.2,N
1557967275.7,286047002.3,N
1557967295.6,286047004.0,N
1557967315.4,286047000.1,N
1557967335.2,286047002.8,N
1557967355.1,286047002.6,N
1557967356.0,286047002.6,N
1557967375.8,286047002.6,N
1557967395.7,286047000.9,N
1557967415.5,286046998.5,N
1557967435.3,286046999.4,N
1557967455.2,286046999.1,N
1557967475.0,286046999.2,N
1557967475.9,286046999.2,N
1557967495.7,286046998.7,N
1557967515.6,286046999.5,N
1557967535.4,286046999.4,N
1557967555.3,286046996.6,N
1557967575.1,286046997.0,N
1557967576.0,286046997.0,N
1557967595.8,286046998.0,N
1557967615.7,286046997.7,N
1557967635.5,286046997.6,N
1557967655.4,286046997.9,N
1557967675.2,286046994.9,N
1557967695.0,286046996.2,N
1557967695.9,286046996.2,N
1557967715.8,286046995.7,N
1557967735.6,286046995.5,N
1557967755.4,286046997.8,N
1557967775.3,286046997.2,N
1557967795.1,286046997.0,N
1557967815.9,286046998.0,N
1557967835.7,286046999.2,N
1557967855.5,286046997.5,N
1557967875.4,286046997.4,N
1557967895.2,286046995.6,N
1557967915.0,286046996.4,N
1557967915.9,286046996.4,N
1557967935.8,286046996.4,N
1557967955.6,286046994.2,Y
1557967975.5,286046995.4,P
1557967995.3,286046996.1,P
1557968015.1,286046996.0,P
1557968035.9,286046997.6,Y
1557968055.7,286047000.6,P
1557968075.5,286047000.5,N
1557968095.4,286047002.4,N
1557968115.2,286047000.8,N
1557968135.1,286047000.9,N
1557968136.0,286047000.9,N
1557968155.8,286046998.5,N
1557968175.6,286047000.3,N
1557968195.5,286047002.3,N
1557968215.3,286047001.9,N
1557968235.1,286047003.9,N
1557968255.9,286047001.7,N
1557968275.7,286046999.8,N
1557968295.6,286047002.6,N
1557968315.4,286047002.6,N
1557968335.2,286046998.6,N
1557968355.1,286046999.1,N
1557968356.0,286046999.1,N
1557968375.8,286046998.2,N
1557968395.6,286047000.4,N
